Location: Unspecified
(0.0000°N, 0.0000°E)
Time: 05:50:06
(UTC+00:00)

N. Korean satellite - Pass Details

Date: 03 August 2020
Orbit: 453 x 506 km, 97.2° (Epoch: 13 August)

Event Time Altitude Azimuth Distance (km) Brightness Sun altitude
Rises 05:05:23 0° 15° (NNE) 2,506 10.7 -14.5°
Reaches altitude 10° 05:07:25 10° 18° (NNE) 1,641 9.7 -14.0°
Maximum altitude 05:10:55 68° 101° (E) 523 6.9 -13.2°
Drops below altitude 10° 05:14:31 10° 184° (S) 1,680 9.1 -12.3°
Sets 05:16:37 0° 187° (S) 2,572 10.0 -11.8°
